Flag for United Kingdom Weather past 2 weeks in Horsham, England, United Kingdom

46 °F

Passing clouds.

Feels Like: 40 °F
Forecast: N/A
Wind: 15 mph from Southwest

Location: London / Gatwick Airport

Current Time: Nov 28, 2015 at 4:03:16 PM

Latest Report: Nov 28, 2015 at 3:20 PM

Visibility: N/A

Pressure: 29.83 "Hg

Humidity: 87%

Dew point: 43 °F

Location of HorshamLocation

Historic Weather in Horsham — Graph


Horsham temperature yesterday

Maximum temperature yesterday: 54 °F (at 10:20 AM)
Minimum temperature yesterday: 43 °F (at 11:50 PM)
Average temperature yesterday: 50 °F

Past Weeks' High & Low Weather Summary

High59 °F (Nov 15, 9:50 AM)100% (Nov 14, 12:20 PM)30.33 "Hg (Nov 14, 12:20 PM)
Low23 °F (Nov 22, 7:20 AM)58% (Nov 13, 2:20 PM)29.56 "Hg (Nov 17, 2:50 PM)
Average47 °F85%29.94 "Hg
* Reported Nov 13 2:20 PM — Nov 28 2:50 PM, Horsham, Weather by CustomWeather, © 2015

Note: Actual official high and low records may vary slightly from our data, if they occured in-between our weather recording intervals... More about our weather records


Horsham weather history for previous 24 hours

Time TempWeatherWind HumidityBarometerVisibility
2:50 PM
Sat, Nov 28
46 °FPassing clouds.13 mph82%29.86 "HgN/A
2:20 PM46 °FLight rain. Broken clouds.13 mph82%29.86 "HgN/A
1:50 PM46 °FSprinkles. Broken clouds.9 mph87%29.89 "HgN/A
1:20 PM46 °FSprinkles. Scattered clouds.10 mph82%29.92 "HgN/A
12:50 PM48 °FPassing clouds.12 mph71%29.92 "HgN/A
12:20 PM48 °FPassing clouds.10 mph71%29.95 "HgN/A
11:50 AM46 °FSunny.13 mph71%29.95 "Hg10 mi
11:20 AM46 °FSunny.14 mph71%29.98 "Hg10 mi
10:50 AM45 °FSunny.13 mph76%29.98 "Hg10 mi
10:20 AM43 °FSunny.12 mph76%29.98 "Hg10 mi
9:50 AM43 °FSunny.7 mph76%29.98 "Hg10 mi
9:20 AM39 °FSunny.8 mph81%30.01 "Hg10 mi
8:50 AM37 °FPassing clouds.5 mph81%30.01 "HgN/A
8:20 AM36 °FSunny.3 mph87%30.01 "Hg10 mi
7:50 AM36 °FSunny.6 mph87%30.01 "Hg10 mi
7:20 AM36 °FClear.7 mph87%30.01 "Hg10 mi
6:20 AM37 °FClear.9 mph81%29.98 "Hg10 mi
5:50 AM37 °FClear.10 mph81%29.98 "Hg10 mi
5:20 AM37 °FClear.9 mph81%29.98 "Hg10 mi
4:50 AM37 °FClear.9 mph81%29.98 "Hg10 mi
4:20 AM37 °FClear.10 mph81%29.98 "Hg10 mi
3:50 AM37 °FClear.9 mph81%29.95 "Hg10 mi
3:20 AM37 °FClear.10 mph81%29.95 "Hg10 mi
2:50 AM37 °FClear.8 mph81%29.95 "Hg10 mi
2:20 AM37 °FClear.9 mph81%29.95 "Hg10 mi
1:50 AM39 °FClear.10 mph81%29.92 "Hg10 mi
1:20 AM39 °FClear.12 mph87%29.89 "Hg10 mi
12:50 AM41 °FPassing clouds.12 mph81%29.89 "HgN/A
11:50 PM
Fri, Nov 27
43 °FPassing clouds.15 mph76%29.86 "HgN/A
10:50 PM45 °FPassing clouds.20 mph76%29.80 "HgN/A
10:20 PM45 °FLight rain. Passing clouds.20 mph87%29.77 "HgN/A
9:50 PM45 °FPassing clouds.14 mph93%29.74 "HgN/A
8:50 PM46 °FLight rain. Passing clouds.14 mph87%29.74 "HgN/A
8:20 PM46 °FLight rain. Passing clouds.15 mph87%29.71 "HgN/A
7:50 PM50 °FLight rain. Passing clouds.26 mph88%29.68 "HgN/A
7:20 PM52 °FPassing clouds.13 mph94%29.65 "HgN/A
6:50 PM52 °FPassing clouds.12 mph94%29.68 "HgN/A
6:20 PM52 °FPartly cloudy.10 mph94%29.68 "HgN/A
5:20 PM52 °FPartly cloudy.9 mph88%29.71 "HgN/A
4:50 PM52 °FPartly cloudy.13 mph88%29.74 "HgN/A
4:20 PM52 °FPartly cloudy.13 mph94%29.74 "HgN/A
Weather by CustomWeather, © 2015

See weather overviewHow to use our weather pages